Change the Weather History Date:

Saturday, May 5, 2012

  Actual Average Record
Temperature  
Mean Temperature 38 °F 49 °F  
Max Temperature 55 °F 64 °F 89 °F (1992)
Min Temperature 21 °F 33 °F 19 °F (1978)
Degree Days  
Heating Degree Days 27 17  
Month to date heating degree days 118 86  
Since 1 July heating degree days 6001 6157  
Cooling Degree Days 0 0  
Month to date cooling degree days 0 0  
Year to date cooling degree days 0 0  
Moisture  
Dew Point 24 °F    
Average Humidity 59    
Maximum Humidity 88    
Minimum Humidity 30    
Precipitation  
Precipitation 0.00 in 0.03 in 0.55 in (1956)
Month to date precipitation 0.10 0.14  
Year to date precipitation 4.73 3.15  
Sea Level Pressure  
Sea Level Pressure 30.42 in    
Wind  
Wind Speed 4 mph (North)    
Max Wind Speed 15 mph    
Max Gust Speed 25 mph    
Visibility 10 miles    
Events      
T = Trace of Precipitation, MM = Missing Value Source: NWS Daily Summary

Daily Weather History Graph

Daily Weather History Graph

Search for Another Location

Airport or City:

Trip Planner

Search our weather history database for the weather conditions in past years. The results will help you decide how hot, cold, wet, or windy it might be!

Date:

Astronomy

May. 05, 2012 Rise Set
Actual Time 5:49 AM PDT 8:13 PM PDT
Civil Twilight 5:16 AM PDT 8:46 PM PDT
Nautical Twilight 4:36 AM PDT 9:27 PM PDT
Astronomical Twilight 3:51 AM PDT 10:12 PM PDT
Moon 8:14 PM PDT (5/5) 5:15 AM PDT (5/5)
Length of Visible Light 15h 29m
Length of Day
14h 24m
Full, 100% of the Moon is Illuminated
May 5
Full
May 5
Full
May 12
Last Quarter
May 20
New
May 28
First Quarter

Hourly Weather History & Observations

Time (PDT) Temp. Windchill Dew Point Humidity Pressure Visibility Wind Dir Wind Speed Gust Speed Precip Events Conditions
12:56 AM 33.1 °F - 25.0 °F 72% 30.36 in 10.0 mi Calm Calm - N/A   Clear
1:56 AM 26.6 °F - 21.2 °F 80% 30.34 in 10.0 mi Calm Calm - N/A   Clear
2:56 AM 28.0 °F 20.8 °F 23.0 °F 81% 30.38 in 10.0 mi South 6.9 mph - N/A   Clear
3:56 AM 28.0 °F - 23.0 °F 81% 30.39 in 10.0 mi Calm Calm - N/A   Clear
4:56 AM 24.1 °F - 21.0 °F 88% 30.41 in 10.0 mi Calm Calm - N/A   Clear
5:56 AM 23.0 °F - 19.9 °F 88% 30.43 in 10.0 mi Calm Calm - N/A   Clear
6:56 AM 27.0 °F - 23.0 °F 85% 30.45 in 10.0 mi Calm Calm - N/A   Clear
7:56 AM 36.0 °F - 26.1 °F 67% 30.45 in 10.0 mi Calm Calm - N/A   Clear
8:56 AM 39.9 °F - 25.0 °F 55% 30.45 in 10.0 mi Calm Calm - N/A   Clear
9:56 AM 44.1 °F 39.5 °F 25.0 °F 47% 30.45 in 10.0 mi NNW 8.1 mph - N/A   Partly Cloudy
10:56 AM 45.0 °F - 24.1 °F 44% 30.45 in 10.0 mi Calm Calm - N/A   Partly Cloudy
11:56 AM 46.0 °F 42.5 °F 23.0 °F 40% 30.43 in 10.0 mi Variable 6.9 mph - N/A   Clear
12:56 PM 51.1 °F - 23.0 °F 33% 30.42 in 10.0 mi North 9.2 mph 18.4 mph N/A   Clear
1:56 PM 52.0 °F - 21.9 °F 31% 30.43 in 10.0 mi North 9.2 mph 20.7 mph N/A   Clear
2:56 PM 52.0 °F - 23.0 °F 32% 30.43 in 10.0 mi Variable 5.8 mph - N/A   Clear
3:56 PM 53.1 °F - 25.0 °F 34% 30.41 in 10.0 mi NNE 5.8 mph - N/A   Overcast
4:56 PM 54.0 °F - 26.1 °F 34% 30.41 in 10.0 mi NNW 12.7 mph - N/A   Clear
5:56 PM 52.0 °F - 27.0 °F 38% 30.41 in 10.0 mi North 8.1 mph - N/A   Clear
6:56 PM 50.0 °F - 27.0 °F 41% 30.41 in 10.0 mi North 10.4 mph - N/A   Clear
7:56 PM 46.9 °F - 28.0 °F 48% 30.40 in 10.0 mi North 6.9 mph - N/A   Clear
9:56 PM 36.0 °F - 27.0 °F 70% 30.44 in 10.0 mi Calm Calm - N/A   Clear
10:56 PM 35.1 °F - 27.0 °F 72% 30.44 in 10.0 mi Calm Calm - N/A   Clear
11:56 PM 30.0 °F - 25.0 °F 82% 30.45 in 10.0 mi Calm Calm - N/A   Clear